[[{"header":{"parameterUnit":"m.s-1","parameterCategory":1,"la1":30.2991,"la2":30.254,"lo1":-89.0895,"lo2":-89.0444,"dy":0.0017,"dx":0.0017,"nx":28,"ny":28,"refTime":"2025-01-23T03:00:00:Z","depth":0,"parameterNumber":2,"parameterNumberName":"U-component_of_WINDS"},"data":[0,0,0,0,0,0,0,0,0,0,0,0,0,0,0,0,0,0,0,0,0,0,0,0,0,0,0,0,0,0,0,0,0,0,0,0,0,0,0,0,0,0,0,0,0,0,0,0,0,0,0,0,0,0,0,0,0,0,0.2797,0.2797,0,0.2746,0.2745,0.2745,0.2732,0.2732,0.2733,0.2733,0.2679,0.2678,0.2676,0,0,0,0,0,0,0,0,0,0,0,0,0,0.2886,0.2884,0.2797,0.2797,0.2796,0.2746,0.2745,0.2744,0.2732,0.2732,0.2733,0.2733,0.268,0.2678,0.2676,0,0,0,0,0,0,0,0,0,0,0,0,0,0.2842,0.2884,0.2797,0.2784,0.2782,0.2746,0.2745,0.2744,0.2732,0.2732,0.2733,0.2733,0.268,0.2678,0.2675,0.2649,0,0,0.2667,0.2666,0,0,0,0,0,0,0,0,0.2845,0.2839,0.2786,0.2785,0.2783,0.2746,0.2757,0.2712,0.2732,0.2751,0.2733,0.2733,0.2701,0.2697,0.2686,0.2646,0.2644,0.2667,0.2666,0.2664,0.2664,0,0,0,0,0,0,0,0.2848,0.2841,0.2777,0.2786,0.2783,0.278,0.2775,0.2748,0.2724,0.2749,0.2748,0.2742,0.27,0.2688,0.2684,0.2643,0.2667,0.2665,0.2663,0.2662,0.2582,0.2581,0,0,0,0,0,0,0.2853,0.2844,0.2779,0.2775,0.2816,0.2778,0.2772,0.2757,0.2724,0.2719,0.2742,0.2742,0.2693,0.2687,0.2682,0.265,0.2664,0.2662,0.266,0.2582,0.2582,0.2581,0,0,0,0,0,0,0.2855,0.2847,0.2781,0.2809,0.2801,0.2776,0.276,0.2756,0.2744,0.2718,0.2714,0.2734,0.2693,0.2686,0.2658,0.2648,0.2661,0.2658,0.2583,0.2582,0.2581,0.2585,0,0,0,0,0,0,0.2858,0.2848,0.2838,0.2809,0.2799,0.2756,0.2759,0.2754,0.274,0.2739,0.271,0.2706,0.2693,0.2662,0.2655,0.2645,0.2656,0.2584,0.2583,0.2582,0.2586,0.2584,0.2583,0,0,0,0,0,0.2861,0.284,0.2837,0.2829,0.2785,0.2756,0.275,0.2736,0.2739,0.2728,0.2712,0.2707,0.2651,0.2659,0.2651,0.264,0.2584,0.2583,0.2582,0.2586,0.2585,0.2583,0,0,0,0,0,0,0.2867,0.2836,0.2832,0.2802,0.2782,0.2754,0.274,0.2734,0.2712,0.2713,0.2696,0.2689,0.2662,0.2648,0.2658,0.2614,0.2617,0.2615,0.2624,0.2622,0.2621,0.2624,0.2654,0,0,0,0,0,0.2865,0.2844,0.2818,0.2794,0.2784,0.2764,0.275,0.2741,0.272,0.2711,0.2692,0.2672,0.265,0.2635,0.2613,0.2584,0.2578,0.2573,0.2572,0.2571,0.2568,0.2553,0.2551,0.2577,0.2577,0.2577,0,0,0.286,0.2841,0.2828,0.2794,0.2778,0.2757,0.2757,0.2734,0.2718,0.2707,0.2679,0.2666,0.2641,0.2613,0.26,0.2601,0.256,0.2569,0.2569,0.2567,0.2552,0.2549,0.2547,0.2576,0.2576,0.2576,0,0,0.2841,0.2824,0.2802,0.2786,0.2761,0.2748,0.2744,0.2717,0.2707,0.268,0.2672,0.2653,0.2615,0.2598,0.2585,0.2562,0.2556,0.2555,0.2549,0.2535,0.2532,0.2531,0.2523,0.252,0.2553,0.2553,0.2553,0,0.2838,0.2806,0.2792,0.277,0.2755,0.2746,0.2724,0.2709,0.2679,0.2669,0.2671,0.2624,0.2607,0.2575,0.257,0.2559,0.2554,0.2558,0.2534,0.2532,0.253,0.2522,0.2519,0.2553,0.2553,0.2553,0.2553,0,0.2804,0.2781,0.2767,0.2738,0.2723,0.2701,0.2684,0.267,0.2663,0.265,0.2623,0.2603,0.2577,0.2569,0.2561,0.2537,0.2538,0.2537,0.254,0.2528,0.252,0.2517,0.2553,0.2553,0.2553,0.2553,0,0,0.2785,0.275,0.2745,0.2733,0.2706,0.2689,0.2667,0.2643,0.2631,0.2611,0.2593,0.2562,0.2562,0.2547,0.2538,0.2525,0.2509,0.2526,0.2525,0.2524,0.2482,0.2482,0.2479,0.2506,0.2505,0.2505,0.2484,0,0.2762,0.2723,0.2711,0.2679,0.2658,0.2651,0.2632,0.2614,0.2602,0.2584,0.2571,0.2549,0.255,0.2541,0.2528,0.2514,0.25,0.2515,0.2489,0.2488,0.2495,0.2475,0.2475,0.2456,0.2481,0.248,0.248,0,0.2729,0.271,0.2675,0.2653,0.2644,0.2627,0.2605,0.2587,0.2567,0.256,0.2544,0.2536,0.2515,0.252,0.249,0.2501,0.249,0.2481,0.248,0.2477,0.2483,0.2471,0.2449,0.2447,0.2475,0.2475,0.2476,0,0.2719,0.2684,0.2659,0.2649,0.2622,0.2611,0.2599,0.2579,0.2566,0.2547,0.2538,0.2517,0.2505,0.2488,0.2476,0.2481,0.2447,0.2451,0.244,0.2441,0.2433,0.2433,0.2409,0.2426,0.2426,0.2427,0.2427,0,0.2695,0.2674,0.2655,0.2639,0.2617,0.2604,0.2582,0.257,0.2553,0.2536,0.2528,0.2512,0.2496,0.2478,0.2468,0.2446,0.244,0.2434,0.2431,0.2434,0.2435,0.2426,0.2427,0.2426,0.2426,0.2426,0.2426,0,0.2679,0.2665,0.2638,0.2615,0.2609,0.2593,0.2574,0.2559,0.2548,0.2527,0.2521,0.2503,0.2482,0.2468,0.2441,0.2434,0.241,0.2407,0.2416,0.2415,0.2405,0.2406,0.2374,0.2369,0.239,0.239,0.239,0,0.2663,0.2648,0.2624,0.2612,0.26,0.2581,0.2568,0.2556,0.2542,0.252,0.2508,0.2487,0.2469,0.2436,0.242,0.24,0.2397,0.2388,0.2394,0.2398,0.2397,0.2398,0.2397,0.2386,0.2386,0.2386,0.2386,0,0.2638,0.2633,0.2614,0.2594,0.2579,0.2562,0.2545,0.2536,0.252,0.2506,0.2485,0.2471,0.2444,0.2424,0.2402,0.2391,0.2386,0.2384,0.2381,0.2383,0.2389,0.2386,0.2413,0.2385,0.2385,0.2385,0.2385,0.2385,0.2622,0.2608,0.259,0.257,0.2556,0.2541,0.2527,0.2515,0.2497,0.2474,0.2468,0.2446,0.2428,0.2399,0.2388,0.2371,0.2372,0.2366,0.2365,0.2364,0.2364,0.2393,0.2367,0.2367,0.2367,0.2367,0.2367,0,0.2597,0.2585,0.2567,0.2544,0.2529,0.2527,0.2509,0.2496,0.2477,0.2461,0.2444,0.242,0.2401,0.2385,0.2365,0.2355,0.2352,0.235,0.235,0.2348,0.2364,0.2369,0.2352,0.2352,0.2352,0.2352,0.2352,0.2352,0.2581,0.2558,0.2551,0.2522,0.251,0.2489,0.2479,0.2465,0.2453,0.2427,0.2411,0.2401,0.2385,0.2365,0.2347,0.2343,0.2336,0.2334,0.233,0.2345,0.2346,0.2348,0.2353,0.2333,0.2333,0.2315,0.2314,0.2314]},{"header":{"parameterUnit":"m.s-1","parameterCategory":1,"la1":30.2991,"la2":30.254,"lo1":-89.0895,"lo2":-89.0444,"dy":0.0017,"dx":0.0017,"nx":28,"ny":28,"refTime":"2025-01-23T03:00:00:Z","depth":0,"parameterNumber":3,"parameterNumberName":"V-component_of_WINDS"},"data":[0,0,0,0,0,0,0,0,0,0,0,0,0,0,0,0,0,0,0,0,0,0,0,0,0,0,0,0,0,0,0,0,0,0,0,0,0,0,0,0,0,0,0,0,0,0,0,0,0,0,0,0,0,0,0,0,0,0,-4.4195,-4.4197,0,-4.4347,-4.4349,-4.4351,-4.4306,-4.4303,-4.43,-4.4297,-4.4448,-4.4454,-4.4461,0,0,0,0,0,0,0,0,0,0,0,0,0,-4.386,-4.3866,-4.4195,-4.4197,-4.4199,-4.4347,-4.4349,-4.4351,-4.4307,-4.4303,-4.4299,-4.4295,-4.4445,-4.4453,-4.4462,0,0,0,0,0,0,0,0,0,0,0,0,0,-4.4008,-4.3868,-4.4194,-4.4194,-4.4196,-4.4346,-4.4349,-4.4352,-4.4307,-4.4303,-4.4298,-4.4294,-4.4443,-4.4453,-4.4463,-4.4621,0,0,-4.4495,-4.4499,0,0,0,0,0,0,0,0,-4.3999,-4.402,-4.4192,-4.4195,-4.4197,-4.4303,-4.4286,-4.4442,-4.4309,-4.4265,-4.4297,-4.4291,-4.4403,-4.4416,-4.4455,-4.4628,-4.4635,-4.4496,-4.4502,-4.4506,-4.4509,0,0,0,0,0,0,0,-4.3989,-4.4013,-4.4255,-4.4195,-4.4198,-4.4185,-4.4201,-4.4315,-4.4358,-4.4268,-4.4265,-4.4284,-4.4403,-4.4445,-4.4458,-4.4637,-4.4495,-4.4505,-4.4511,-4.4515,-4.4945,-4.495,0,0,0,0,0,0,-4.3978,-4.4005,-4.425,-4.4259,-4.4085,-4.4195,-4.4212,-4.4273,-4.4357,-4.4365,-4.4288,-4.4282,-4.443,-4.4446,-4.4463,-4.4653,-4.4506,-4.4516,-4.4522,-4.494,-4.4947,-4.4952,0,0,0,0,0,0,-4.3971,-4.4001,-4.4244,-4.4132,-4.4162,-4.4206,-4.4274,-4.4279,-4.4321,-4.4372,-4.4379,-4.4324,-4.4426,-4.4449,-4.4582,-4.4658,-4.4521,-4.453,-4.4934,-4.4942,-4.4949,-4.5034,0,0,0,0,0,0,-4.3962,-4.3998,-4.406,-4.4133,-4.4168,-4.4363,-4.4279,-4.4285,-4.434,-4.4333,-4.4407,-4.4415,-4.4424,-4.4567,-4.4593,-4.4669,-4.4538,-4.4928,-4.4938,-4.4947,-4.5025,-4.5044,-4.5061,0,0,0,0,0,-4.395,-4.4078,-4.4064,-4.4094,-4.4247,-4.4367,-4.4386,-4.4397,-4.4346,-4.4408,-4.444,-4.4412,-4.4645,-4.4581,-4.4609,-4.4691,-4.4923,-4.4935,-4.4946,-4.5017,-4.504,-4.506,0,0,0,0,0,0,-4.4011,-4.4087,-4.4073,-4.4228,-4.4292,-4.4359,-4.4438,-4.4421,-4.4499,-4.4489,-4.4496,-4.4513,-4.465,-4.4683,-4.4611,-4.4847,-4.4776,-4.4794,-4.482,-4.4843,-4.486,-4.4849,-4.4547,0,0,0,0,0,-4.4043,-4.4136,-4.4197,-4.4328,-4.436,-4.4394,-4.4446,-4.4449,-4.4514,-4.454,-4.4582,-4.4645,-4.4732,-4.4789,-4.4872,-4.503,-4.5044,-4.5099,-4.5117,-4.5131,-4.5146,-4.523,-4.5255,-4.4991,-4.499,-4.499,0,0,-4.4109,-4.4162,-4.422,-4.4341,-4.4391,-4.4485,-4.4417,-4.4519,-4.4589,-4.4555,-4.4684,-4.4717,-4.4787,-4.4933,-4.4999,-4.4965,-4.5223,-4.5146,-4.5157,-4.5165,-4.5245,-4.527,-4.5292,-4.4998,-4.4997,-4.4996,0,0,-4.4278,-4.4328,-4.4442,-4.4493,-4.4569,-4.459,-4.4618,-4.4688,-4.4709,-4.4839,-4.4815,-4.4897,-4.5047,-4.5098,-4.5143,-4.533,-4.5307,-4.5356,-4.5449,-4.5531,-4.5551,-4.557,-4.5635,-4.5659,-4.5372,-4.5372,-4.5372,0,-4.435,-4.4493,-4.4502,-4.4608,-4.4661,-4.4636,-4.475,-4.4799,-4.4897,-4.4934,-4.4894,-4.5082,-4.5127,-4.5284,-4.533,-4.5368,-4.5397,-4.5348,-4.5548,-4.5567,-4.5584,-4.5646,-4.5671,-4.5377,-4.5377,-4.5376,-4.5376,0,-4.4577,-4.4677,-4.4759,-4.4857,-4.4919,-4.5028,-4.5053,-4.5114,-4.511,-4.5135,-4.5266,-4.532,-4.5413,-4.545,-4.5447,-4.5606,-4.5582,-4.5546,-4.5475,-4.5615,-4.5673,-4.5697,-4.5385,-4.5383,-4.5382,-4.538,0,0,-4.479,-4.489,-4.4921,-4.4964,-4.5045,-4.5121,-4.5228,-4.5321,-4.5372,-4.5441,-4.5529,-4.5657,-4.5623,-4.5675,-4.5677,-4.5749,-4.5891,-4.5703,-4.5704,-4.5735,-4.6068,-4.6095,-4.6122,-4.5877,-4.5881,-4.5885,-4.6061,0,-4.4965,-4.5155,-4.5166,-4.5338,-4.5429,-4.5405,-4.5498,-4.5557,-4.5582,-4.5661,-4.5688,-4.5778,-4.5728,-4.5758,-4.5828,-4.5859,-4.5958,-4.5847,-4.5957,-4.5961,-4.594,-4.6153,-4.6182,-4.6347,-4.6085,-4.6088,-4.6091,0,-4.5195,-4.5272,-4.5453,-4.552,-4.5559,-4.5642,-4.5727,-4.5804,-4.5869,-4.5882,-4.5939,-4.5931,-4.6038,-4.5964,-4.611,-4.6034,-4.608,-4.6102,-4.6108,-4.6118,-4.6034,-4.6168,-4.6399,-4.6424,-4.6128,-4.6125,-4.6122,0,-4.533,-4.5479,-4.5606,-4.5644,-4.5726,-4.5785,-4.5821,-4.5882,-4.5936,-4.601,-4.6045,-4.6129,-4.6175,-4.6239,-4.6253,-4.6198,-4.6399,-4.6326,-4.6411,-4.6411,-4.6455,-4.6452,-4.6696,-4.6485,-4.6485,-4.6485,-4.6484,0,-4.5525,-4.5636,-4.5668,-4.5746,-4.587,-4.588,-4.6001,-4.6033,-4.6088,-4.617,-4.6154,-4.6231,-4.6245,-4.6325,-4.6336,-4.6455,-4.6476,-4.6488,-4.649,-4.649,-4.6488,-4.6519,-4.6508,-4.6491,-4.649,-4.6488,-4.6487,0,-4.5697,-4.5723,-4.586,-4.5927,-4.5946,-4.6034,-4.6089,-4.6163,-4.6186,-4.6291,-4.6316,-4.6352,-4.6444,-4.6465,-4.6574,-4.6582,-4.6723,-4.6713,-4.6701,-4.67,-4.6784,-4.6776,-4.7056,-4.7093,-4.6859,-4.6861,-4.6863,0,-4.5819,-4.5905,-4.598,-4.6035,-4.6075,-4.6163,-4.6219,-4.6231,-4.6289,-4.6369,-4.6433,-4.6525,-4.6598,-4.6747,-4.6782,-4.6865,-4.6857,-4.695,-4.6869,-4.6866,-4.6857,-4.6852,-4.686,-4.6965,-4.6967,-4.6969,-4.6971,0,-4.6033,-4.6041,-4.6123,-4.6209,-4.6276,-4.6344,-4.6408,-4.6454,-4.6475,-4.654,-4.6636,-4.6693,-4.6805,-4.6895,-4.6979,-4.7014,-4.6996,-4.6996,-4.702,-4.702,-4.701,-4.7016,-4.6742,-4.6989,-4.6988,-4.6986,-4.6985,-4.6984,-4.6184,-4.6258,-4.6323,-4.6413,-4.6463,-4.6524,-4.6596,-4.6629,-4.6709,-4.6803,-4.6804,-4.6908,-4.6969,-4.7079,-4.7119,-4.7199,-4.717,-4.7205,-4.7214,-4.7222,-4.7229,-4.6997,-4.7214,-4.7214,-4.7213,-4.7213,-4.7212,0,-4.6396,-4.6436,-4.652,-4.6611,-4.6682,-4.666,-4.6729,-4.679,-4.6882,-4.6941,-4.7014,-4.7123,-4.721,-4.7251,-4.7336,-4.7392,-4.7386,-4.7414,-4.741,-4.7418,-4.7251,-4.7221,-4.7418,-4.7417,-4.7417,-4.7417,-4.7417,-4.7417,-4.6515,-4.6639,-4.6655,-4.6802,-4.6841,-4.6944,-4.6986,-4.704,-4.7087,-4.721,-4.7283,-4.731,-4.7361,-4.745,-4.7528,-4.7537,-4.7569,-4.7601,-4.7607,-4.745,-4.7429,-4.741,-4.7382,-4.7608,-4.7609,-4.7766,-4.7768,-4.7769]}]]